DAL2520 KATL-KLAX

Flight info

Callsign DAL2520
Flight time 4h 27m
Altitude 32000
Route NASSA2 YAALL J14 CRUSR/N0466F340 J14 PNH ACH ABQ J78 DRK GABBL HLYWD1
Aircraft A21N/M-SDE2E3FGHIJ1RWXY/LB1

Departure

Time 2026-05-07 16:16
Airport Hartsfield Jackson Atlanta International Airport (KATL)

Arrival

Time 2026-05-07 20:44
Airport Los Angeles International Airport (KLAX)
Time Latitude Longitude Altitude Speed Heading
2026-05-07 15:44 33.63883 -84.43867 1012 ft 0 kts 268°
2026-05-07 16:00 33.63883 -84.43840 1012 ft 4 kts 270°
2026-05-07 16:01 33.63880 -84.43809 1012 ft 4 kts 295°
2026-05-07 16:01 33.63864 -84.43789 1012 ft 4 kts 346°
2026-05-07 16:01 33.63856 -84.43787 1012 ft 2 kts
2026-05-07 16:06 33.63865 -84.43787 1012 ft 2 kts
2026-05-07 16:06 33.63888 -84.43787 1012 ft 4 kts
2026-05-07 16:06 33.63926 -84.43787 1012 ft 7 kts
2026-05-07 16:06 33.63977 -84.43787 1012 ft 8 kts 360°
2026-05-07 16:07 33.64037 -84.43787 1012 ft 9 kts 360°
2026-05-07 16:07 33.64105 -84.43787 1012 ft 10 kts 360°
2026-05-07 16:07 33.64182 -84.43787 1012 ft 12 kts 360°
2026-05-07 16:07 33.64265 -84.43787 1012 ft 13 kts 360°
2026-05-07 16:08 33.64340 -84.43788 1012 ft 9 kts 360°
2026-05-07 16:08 33.64392 -84.43787 1012 ft 7 kts
2026-05-07 16:08 33.64441 -84.43782 1011 ft 8 kts 33°
2026-05-07 16:08 33.64458 -84.43714 1012 ft 9 kts 86°
2026-05-07 16:09 33.64458 -84.43634 1012 ft 10 kts 90°
2026-05-07 16:09 33.64459 -84.43543 1012 ft 11 kts 90°
2026-05-07 16:09 33.64459 -84.43444 1012 ft 13 kts 89°
2026-05-07 16:09 33.64460 -84.43331 1012 ft 14 kts 89°
2026-05-07 16:10 33.64460 -84.43210 1012 ft 15 kts 90°
2026-05-07 16:10 33.64459 -84.43082 1012 ft 16 kts 90°
2026-05-07 16:10 33.64459 -84.42947 1012 ft 17 kts 90°
2026-05-07 16:10 33.64460 -84.42805 1012 ft 17 kts 89°
2026-05-07 16:11 33.64469 -84.42658 1012 ft 18 kts 90°
2026-05-07 16:11 33.64468 -84.42506 1011 ft 19 kts 90°
2026-05-07 16:11 33.64469 -84.42349 1011 ft 17 kts 90°
2026-05-07 16:11 33.64484 -84.42231 1011 ft 14 kts 61°
2026-05-07 16:12 33.64535 -84.42125 1011 ft 15 kts 70°
2026-05-07 16:12 33.64542 -84.41996 1011 ft 16 kts 90°
2026-05-07 16:12 33.64542 -84.41859 1012 ft 17 kts 90°
2026-05-07 16:12 33.64542 -84.41716 1012 ft 18 kts 90°
2026-05-07 16:13 33.64542 -84.41567 1012 ft 18 kts 90°
2026-05-07 16:13 33.64542 -84.41412 1012 ft 19 kts 90°
2026-05-07 16:13 33.64542 -84.41252 1012 ft 19 kts 90°
2026-05-07 16:13 33.64542 -84.41088 1012 ft 20 kts 90°
2026-05-07 16:14 33.64542 -84.40919 1011 ft 21 kts 90°
2026-05-07 16:14 33.64553 -84.40806 1011 ft 9 kts 64°
2026-05-07 16:14 33.64570 -84.40728 1011 ft 10 kts 89°
2026-05-07 16:14 33.64570 -84.40636 1011 ft 11 kts 90°
2026-05-07 16:15 33.64583 -84.40581 1011 ft 6 kts 43°
2026-05-07 16:15 33.64624 -84.40566 1010 ft 7 kts
2026-05-07 16:15 33.64673 -84.40587 1009 ft 10 kts 300°
2026-05-07 16:15 33.64680 -84.40773 1010 ft 50 kts 270°
2026-05-07 16:16 33.64680 -84.41479 1014 ft 117 kts 270°
2026-05-07 16:16 33.64681 -84.42649 1010 ft 163 kts 270°
2026-05-07 16:16 33.64680 -84.44078 1401 ft 169 kts 270°
2026-05-07 16:16 33.64680 -84.45473 1947 ft 170 kts 270°
2026-05-07 16:17 33.64745 -84.46907 2424 ft 178 kts 281°
2026-05-07 16:17 33.65080 -84.48378 2876 ft 187 kts 284°
2026-05-07 16:17 33.65376 -84.49925 3372 ft 197 kts 283°
2026-05-07 16:17 33.65677 -84.51597 3813 ft 213 kts 283°
2026-05-07 16:18 33.66019 -84.53433 4115 ft 237 kts 283°
2026-05-07 16:18 33.66413 -84.55453 4565 ft 253 kts 283°
2026-05-07 16:18 33.66819 -84.57535 5266 ft 258 kts 282°
2026-05-07 16:18 33.67216 -84.59636 6038 ft 259 kts 281°
2026-05-07 16:19 33.67576 -84.61730 6801 ft 260 kts 280°
2026-05-07 16:19 33.67938 -84.63858 7554 ft 261 kts 280°
2026-05-07 16:19 33.68301 -84.65994 8306 ft 261 kts 280°
2026-05-07 16:19 33.68660 -84.68128 9028 ft 261 kts 279°
2026-05-07 16:20 33.69019 -84.70266 9715 ft 261 kts 279°
2026-05-07 16:20 33.69381 -84.72413 10296 ft 267 kts 278°
2026-05-07 16:20 33.69759 -84.74665 10557 ft 284 kts 278°
2026-05-07 16:20 33.69996 -84.77078 10771 ft 298 kts 270°
2026-05-07 16:21 33.70005 -84.79635 10973 ft 315 kts 268°
2026-05-07 16:21 33.69989 -84.82321 11330 ft 326 kts 268°
2026-05-07 16:21 33.69975 -84.85065 11930 ft 330 kts 268°
2026-05-07 16:21 33.69968 -84.87824 12616 ft 331 kts 267°
2026-05-07 16:22 33.69963 -84.90591 13250 ft 333 kts 268°
2026-05-07 16:22 33.69957 -84.93386 13850 ft 336 kts 268°
2026-05-07 16:22 33.69947 -84.96202 14444 ft 339 kts 268°
2026-05-07 16:22 33.69937 -84.99042 15019 ft 341 kts 268°
2026-05-07 16:23 33.69930 -85.01902 15580 ft 344 kts 268°
2026-05-07 16:23 33.69924 -85.04783 16136 ft 346 kts 268°
2026-05-07 16:23 33.69913 -85.07682 16680 ft 348 kts 268°
2026-05-07 16:23 33.69901 -85.10600 17213 ft 350 kts 268°
2026-05-07 16:24 33.69887 -85.13530 17771 ft 352 kts 269°
2026-05-07 16:24 33.69874 -85.16473 18302 ft 353 kts 268°
2026-05-07 16:24 33.69860 -85.19424 18806 ft 355 kts 268°
2026-05-07 16:24 33.69850 -85.22393 19299 ft 356 kts 268°
2026-05-07 16:25 33.69826 -85.25376 19793 ft 358 kts 268°
2026-05-07 16:25 33.69794 -85.28371 20266 ft 359 kts 268°
2026-05-07 16:25 33.69755 -85.31378 20722 ft 361 kts 268°
2026-05-07 16:25 33.69719 -85.34366 21161 ft 363 kts 268°
2026-05-07 16:26 33.69684 -85.37397 21592 ft 364 kts 268°
2026-05-07 16:26 33.69651 -85.40441 22008 ft 366 kts 268°
2026-05-07 16:26 33.69615 -85.43507 22427 ft 368 kts 267°
2026-05-07 16:26 33.69590 -85.45587 22699 ft 369 kts 267°
2026-05-07 16:27 33.69542 -85.49680 23220 ft 371 kts 267°
2026-05-07 16:27 33.69505 -85.52789 23598 ft 374 kts 267°
2026-05-07 16:27 33.69465 -85.55916 23967 ft 376 kts 267°
2026-05-07 16:27 33.69417 -85.59067 24382 ft 378 kts 267°
2026-05-07 16:28 33.69375 -85.62226 24773 ft 379 kts 267°
2026-05-07 16:28 33.69329 -85.65395 25151 ft 380 kts 267°
2026-05-07 16:28 33.69287 -85.68567 25530 ft 381 kts 267°
2026-05-07 16:28 33.69243 -85.71752 25888 ft 382 kts 267°
2026-05-07 16:29 33.69197 -85.74945 26243 ft 383 kts 267°
2026-05-07 16:29 33.69150 -85.78142 26591 ft 384 kts 267°
2026-05-07 16:29 33.69106 -85.81349 26903 ft 385 kts 267°
2026-05-07 16:29 33.69057 -85.84569 27234 ft 386 kts 267°
2026-05-07 16:30 33.69006 -85.87791 27581 ft 386 kts 266°
2026-05-07 16:30 33.68955 -85.91005 28009 ft 383 kts 266°
2026-05-07 16:30 33.68906 -85.94190 28435 ft 380 kts 266°
2026-05-07 16:30 33.68855 -85.97356 28851 ft 378 kts 266°
2026-05-07 16:31 33.68800 -86.00500 29239 ft 376 kts 266°
2026-05-07 16:31 33.68760 -86.03630 29615 ft 374 kts 268°
2026-05-07 16:31 33.68906 -86.06745 30012 ft 373 kts 271°
2026-05-07 16:31 33.69152 -86.09837 30388 ft 371 kts 272°
2026-05-07 16:32 33.69404 -86.12915 30721 ft 369 kts 271°
2026-05-07 16:32 33.69648 -86.15981 31013 ft 368 kts 271°
2026-05-07 16:32 33.69893 -86.19039 31287 ft 368 kts 271°
2026-05-07 16:32 33.70132 -86.22060 31560 ft 367 kts 271°
2026-05-07 16:33 33.70370 -86.25108 31832 ft 366 kts 271°
2026-05-07 16:33 33.70604 -86.28154 32039 ft 367 kts 271°
2026-05-07 16:33 33.70838 -86.31210 32077 ft 367 kts 271°
2026-05-07 16:34 33.71303 -86.37313 32059 ft 367 kts 271°
2026-05-07 16:34 33.71767 -86.43406 32056 ft 366 kts 271°
2026-05-07 16:35 33.72234 -86.49503 32060 ft 366 kts 271°
2026-05-07 16:35 33.72699 -86.55605 32060 ft 367 kts 271°
2026-05-07 16:36 33.73150 -86.61716 32060 ft 367 kts 271°
2026-05-07 16:36 33.73601 -86.67833 32061 ft 368 kts 271°
2026-05-07 16:37 33.74067 -86.73958 32069 ft 368 kts 271°
2026-05-07 16:37 33.74528 -86.80069 32070 ft 367 kts 271°
2026-05-07 16:38 33.74904 -86.85153 32071 ft 367 kts 271°
2026-05-07 16:38 33.75350 -86.91265 32071 ft 367 kts 271°
2026-05-07 16:39 33.75789 -86.97377 32069 ft 367 kts 271°
2026-05-07 16:39 33.76228 -87.03468 32071 ft 366 kts 271°
2026-05-07 16:40 33.76662 -87.09561 32070 ft 365 kts 270°
2026-05-07 16:40 33.77092 -87.15637 32077 ft 364 kts 271°
2026-05-07 16:41 33.77519 -87.21706 32079 ft 364 kts 271°
2026-05-07 16:41 33.77925 -87.27762 32081 ft 363 kts 271°
2026-05-07 16:42 33.78342 -87.33809 32080 ft 362 kts 271°
2026-05-07 16:42 33.78749 -87.39798 32080 ft 361 kts 271°
2026-05-07 16:43 33.79158 -87.45810 32081 ft 360 kts 271°
2026-05-07 16:43 33.80045 -87.51765 32080 ft 365 kts 278°
2026-05-07 16:44 33.81293 -87.57664 32080 ft 364 kts 278°
2026-05-07 16:44 33.82527 -87.63564 32080 ft 363 kts 278°
2026-05-07 16:45 33.83753 -87.69461 32080 ft 363 kts 278°
2026-05-07 16:45 33.84975 -87.75336 32080 ft 362 kts 277°
2026-05-07 16:46 33.86188 -87.81208 32085 ft 361 kts 277°
2026-05-07 16:46 33.87399 -87.87070 32090 ft 361 kts 277°
2026-05-07 16:47 33.88601 -87.92930 32120 ft 360 kts 277°
2026-05-07 16:47 33.89804 -87.98777 32107 ft 360 kts 277°
2026-05-07 16:48 33.91001 -88.04622 32111 ft 360 kts 277°
2026-05-07 16:48 33.92193 -88.10471 32106 ft 360 kts 277°
2026-05-07 16:49 33.93386 -88.16322 32120 ft 360 kts 277°
2026-05-07 16:49 33.94570 -88.22134 32127 ft 360 kts 277°
2026-05-07 16:50 33.95751 -88.27988 32125 ft 360 kts 277°
2026-05-07 16:50 33.96928 -88.33862 32127 ft 361 kts 277°
2026-05-07 16:51 33.98116 -88.39734 32138 ft 361 kts 277°
2026-05-07 16:51 33.99311 -88.45605 32128 ft 361 kts 277°
2026-05-07 16:52 34.00494 -88.51487 32125 ft 362 kts 277°
2026-05-07 16:52 34.01663 -88.57332 32128 ft 356 kts 277°
2026-05-07 16:53 34.02819 -88.63148 32128 ft 357 kts 277°
2026-05-07 16:53 34.03975 -88.68959 32121 ft 356 kts 277°
2026-05-07 16:54 34.05120 -88.74761 32113 ft 355 kts 277°
2026-05-07 16:54 34.06269 -88.80554 32123 ft 355 kts 277°
2026-05-07 16:55 34.07412 -88.86336 32128 ft 355 kts 277°
2026-05-07 16:55 34.08547 -88.92122 32128 ft 355 kts 277°
2026-05-07 16:56 34.09680 -88.97914 32122 ft 354 kts 277°
2026-05-07 16:56 34.11359 -89.06576 32127 ft 353 kts 276°
2026-05-07 16:57 34.12483 -89.12352 32132 ft 354 kts 277°
2026-05-07 16:57 34.13614 -89.18132 32124 ft 354 kts 276°
2026-05-07 16:58 34.14740 -89.23903 32123 ft 353 kts 276°
2026-05-07 16:58 34.15845 -89.29686 32138 ft 353 kts 276°
2026-05-07 16:59 34.16950 -89.35465 32133 ft 354 kts 276°
2026-05-07 16:59 34.18070 -89.41257 32137 ft 354 kts 276°
2026-05-07 17:00 34.19181 -89.47012 32132 ft 355 kts 276°
2026-05-07 17:00 34.20320 -89.52816 32141 ft 357 kts 278°
2026-05-07 17:01 34.21711 -89.58581 32129 ft 358 kts 279°
2026-05-07 17:01 34.23120 -89.64345 32126 ft 358 kts 279°
2026-05-07 17:02 34.24516 -89.70111 32129 ft 358 kts 279°
2026-05-07 17:02 34.25916 -89.75890 32138 ft 358 kts 279°
2026-05-07 17:03 34.27311 -89.81675 32130 ft 358 kts 279°
2026-05-07 17:03 34.28702 -89.87464 32114 ft 358 kts 279°
2026-05-07 17:04 34.30095 -89.93250 32117 ft 358 kts 279°
2026-05-07 17:04 34.31462 -89.99044 32131 ft 358 kts 278°
2026-05-07 17:05 34.32841 -90.04837 32119 ft 358 kts 279°
2026-05-07 17:05 34.34224 -90.10632 32123 ft 358 kts 278°
2026-05-07 17:06 34.35597 -90.16417 32127 ft 358 kts 278°
2026-05-07 17:06 34.36977 -90.22198 32121 ft 357 kts 278°
2026-05-07 17:07 34.38347 -90.27980 32132 ft 357 kts 278°
2026-05-07 17:07 34.39704 -90.33717 32137 ft 356 kts 278°
2026-05-07 17:08 34.41059 -90.39482 32146 ft 356 kts 278°
2026-05-07 17:08 34.42417 -90.45245 32139 ft 355 kts 278°
2026-05-07 17:09 34.43761 -90.51001 32139 ft 355 kts 278°
2026-05-07 17:09 34.45104 -90.56741 32136 ft 354 kts 278°
2026-05-07 17:10 34.46442 -90.62482 32140 ft 354 kts 278°
2026-05-07 17:10 34.47775 -90.68212 32139 ft 353 kts 278°
2026-05-07 17:11 34.49108 -90.73940 32143 ft 352 kts 278°
2026-05-07 17:11 34.50435 -90.79653 32138 ft 351 kts 278°
2026-05-07 17:12 34.51753 -90.85357 32144 ft 351 kts 278°
2026-05-07 17:12 34.53071 -90.91054 32148 ft 350 kts 278°
2026-05-07 17:13 34.54380 -90.96744 32149 ft 350 kts 278°
2026-05-07 17:13 34.55687 -91.02437 32156 ft 350 kts 278°
2026-05-07 17:14 34.56992 -91.08127 32160 ft 350 kts 278°
2026-05-07 17:14 34.58292 -91.13823 32160 ft 350 kts 278°
2026-05-07 17:15 34.59587 -91.19477 32166 ft 350 kts 278°
2026-05-07 17:15 34.60887 -91.25173 32167 ft 350 kts 278°
2026-05-07 17:16 34.62182 -91.30871 32167 ft 350 kts 278°
2026-05-07 17:16 34.63481 -91.36571 32170 ft 350 kts 278°
2026-05-07 17:17 34.64774 -91.42277 32172 ft 350 kts 278°
2026-05-07 17:17 34.66056 -91.47979 32170 ft 350 kts 278°
2026-05-07 17:18 34.67339 -91.53679 32170 ft 350 kts 278°
2026-05-07 17:18 34.68631 -91.59383 32170 ft 350 kts 278°
2026-05-07 17:19 34.69913 -91.65094 32165 ft 350 kts 278°
2026-05-07 17:19 34.71186 -91.70800 32158 ft 350 kts 278°
2026-05-07 17:20 34.72460 -91.76515 32149 ft 350 kts 278°
2026-05-07 17:20 34.73728 -91.82225 32147 ft 350 kts 278°
2026-05-07 17:21 34.74995 -91.87935 32152 ft 350 kts 278°
2026-05-07 17:21 34.76259 -91.93638 32153 ft 349 kts 278°
2026-05-07 17:22 34.77509 -91.99298 32159 ft 349 kts 277°
2026-05-07 17:22 34.78761 -92.05004 32160 ft 349 kts 277°
2026-05-07 17:23 34.80016 -92.10718 32160 ft 350 kts 278°
2026-05-07 17:23 34.81115 -92.16453 32159 ft 345 kts 272°
2026-05-07 17:24 34.81651 -92.22234 32161 ft 343 kts 271°
2026-05-07 17:24 34.82166 -92.28006 32158 ft 343 kts 271°
2026-05-07 17:25 34.82686 -92.33777 32161 ft 343 kts 271°
2026-05-07 17:25 34.83202 -92.39546 32160 ft 343 kts 271°
2026-05-07 17:26 34.83718 -92.45317 32156 ft 342 kts 271°
2026-05-07 17:26 34.84144 -92.50108 32162 ft 343 kts 271°
2026-05-07 17:27 34.84653 -92.55874 32161 ft 343 kts 271°
2026-05-07 17:27 34.85156 -92.61638 32161 ft 342 kts 271°
2026-05-07 17:28 34.85741 -92.68338 32160 ft 343 kts 271°
2026-05-07 17:28 34.86160 -92.73169 32162 ft 343 kts 271°
2026-05-07 17:29 34.86657 -92.78943 32158 ft 343 kts 271°
2026-05-07 17:29 34.87151 -92.84722 32163 ft 343 kts 271°
2026-05-07 17:30 34.87643 -92.90495 32160 ft 343 kts 271°
2026-05-07 17:30 34.88137 -92.96269 32161 ft 343 kts 271°
2026-05-07 17:31 34.88629 -93.02045 32162 ft 343 kts 271°
2026-05-07 17:31 34.89110 -93.07830 32160 ft 343 kts 271°
2026-05-07 17:32 34.89597 -93.13609 32159 ft 343 kts 271°
2026-05-07 17:32 34.90079 -93.19381 32159 ft 343 kts 271°
2026-05-07 17:33 34.90544 -93.25120 32161 ft 343 kts 271°
2026-05-07 17:33 34.91018 -93.30943 32160 ft 343 kts 271°
2026-05-07 17:34 34.91486 -93.36697 32159 ft 344 kts 271°
2026-05-07 17:34 34.91953 -93.42487 32161 ft 343 kts 271°
2026-05-07 17:35 34.92420 -93.48276 32162 ft 343 kts 271°
2026-05-07 17:35 34.92885 -93.54066 32160 ft 343 kts 271°
2026-05-07 17:36 34.93348 -93.59856 32160 ft 344 kts 271°
2026-05-07 17:36 34.93809 -93.65653 32151 ft 344 kts 271°
2026-05-07 17:37 34.94258 -93.71461 32159 ft 344 kts 271°
2026-05-07 17:37 34.94700 -93.77261 32158 ft 344 kts 271°
2026-05-07 17:38 34.95141 -93.83073 32162 ft 345 kts 271°
2026-05-07 17:38 34.95592 -93.88894 32161 ft 345 kts 271°
2026-05-07 17:39 34.96037 -93.94717 32159 ft 344 kts 271°
2026-05-07 17:39 34.96484 -94.00518 32161 ft 344 kts 271°
2026-05-07 17:40 34.96922 -94.06302 32159 ft 346 kts 271°
2026-05-07 17:40 34.97362 -94.12138 32159 ft 346 kts 271°
2026-05-07 17:41 34.97800 -94.17979 32161 ft 346 kts 271°
2026-05-07 17:41 34.98233 -94.23818 32159 ft 346 kts 271°
2026-05-07 17:42 34.98664 -94.29658 32157 ft 347 kts 271°
2026-05-07 17:42 34.99099 -94.35516 32161 ft 347 kts 271°
2026-05-07 17:43 34.99530 -94.41371 32161 ft 347 kts 271°
2026-05-07 17:43 34.99957 -94.47231 32159 ft 347 kts 271°
2026-05-07 17:44 35.00384 -94.53088 32159 ft 347 kts 271°
2026-05-07 17:44 35.00809 -94.58944 32160 ft 347 kts 271°
2026-05-07 17:45 35.01222 -94.64808 32161 ft 347 kts 271°
2026-05-07 17:45 35.01823 -94.70673 32160 ft 350 kts 274°
2026-05-07 17:46 35.02621 -94.76487 32159 ft 350 kts 274°
2026-05-07 17:46 35.03412 -94.82344 32154 ft 351 kts 274°
2026-05-07 17:47 35.04212 -94.88215 32161 ft 351 kts 274°
2026-05-07 17:47 35.05010 -94.94090 32161 ft 351 kts 274°
2026-05-07 17:48 35.05805 -94.99961 32160 ft 351 kts 274°
2026-05-07 17:48 35.06598 -95.05841 32163 ft 351 kts 274°
2026-05-07 17:49 35.07368 -95.11722 32151 ft 351 kts 274°
2026-05-07 17:49 35.08151 -95.17614 32158 ft 352 kts 274°
2026-05-07 17:50 35.08934 -95.23510 32159 ft 352 kts 274°
2026-05-07 17:50 35.09741 -95.29419 32159 ft 353 kts 274°
2026-05-07 17:51 35.10539 -95.35336 32160 ft 353 kts 274°
2026-05-07 17:51 35.11309 -95.41220 32162 ft 353 kts 274°
2026-05-07 17:52 35.12087 -95.47153 32162 ft 354 kts 274°
2026-05-07 17:52 35.12801 -95.53089 32159 ft 354 kts 274°
2026-05-07 17:53 35.13505 -95.59033 32160 ft 354 kts 274°
2026-05-07 17:53 35.14213 -95.64979 32159 ft 353 kts 274°
2026-05-07 17:54 35.14916 -95.70927 32160 ft 354 kts 274°
2026-05-07 17:54 35.15621 -95.76885 32169 ft 354 kts 274°
2026-05-07 17:55 35.16321 -95.82840 32170 ft 354 kts 274°
2026-05-07 17:55 35.17009 -95.88788 32170 ft 354 kts 274°
2026-05-07 17:56 35.17707 -95.94755 32171 ft 355 kts 274°
2026-05-07 17:56 35.18399 -96.00722 32162 ft 355 kts 274°
2026-05-07 17:57 35.18975 -96.05702 32159 ft 357 kts 274°
2026-05-07 17:57 35.19778 -96.12741 32160 ft 358 kts 274°
2026-05-07 17:58 35.20474 -96.18774 32161 ft 358 kts 274°
2026-05-07 17:58 35.21158 -96.24807 32160 ft 358 kts 274°
2026-05-07 17:59 35.21844 -96.30842 32159 ft 358 kts 274°
2026-05-07 17:59 35.22524 -96.36880 32162 ft 358 kts 274°
2026-05-07 18:00 35.23204 -96.42920 32160 ft 358 kts 274°
2026-05-07 18:00 35.23878 -96.48917 32161 ft 358 kts 274°
2026-05-07 18:01 35.24550 -96.54960 32159 ft 359 kts 274°
2026-05-07 18:01 35.25223 -96.61024 32159 ft 360 kts 273°
2026-05-07 18:02 35.26225 -96.70114 32161 ft 359 kts 273°
2026-05-07 18:03 35.26894 -96.76181 32161 ft 360 kts 273°
2026-05-07 18:03 35.27552 -96.82254 32162 ft 360 kts 273°
2026-05-07 18:04 35.28214 -96.88333 32162 ft 361 kts 273°
2026-05-07 18:04 35.28867 -96.94420 32160 ft 361 kts 273°
2026-05-07 18:05 35.29527 -97.00518 32161 ft 361 kts 273°
2026-05-07 18:05 35.30180 -97.06618 32160 ft 362 kts 273°
2026-05-07 18:06 35.30830 -97.12734 32153 ft 362 kts 274°
2026-05-07 18:06 35.31475 -97.18853 32151 ft 362 kts 273°
2026-05-07 18:07 35.32123 -97.24977 32147 ft 363 kts 273°
2026-05-07 18:07 35.32766 -97.31115 32141 ft 364 kts 273°
2026-05-07 18:08 35.33409 -97.37264 32144 ft 364 kts 273°
2026-05-07 18:08 35.34051 -97.43422 32141 ft 365 kts 273°
2026-05-07 18:09 35.34690 -97.49584 32144 ft 365 kts 273°
2026-05-07 18:09 35.35321 -97.55718 32147 ft 366 kts 273°
2026-05-07 18:10 35.35830 -97.61894 32148 ft 363 kts 268°
2026-05-07 18:10 35.35760 -97.68074 32149 ft 363 kts 267°
2026-05-07 18:11 35.35668 -97.74261 32150 ft 364 kts 267°
2026-05-07 18:11 35.35573 -97.80459 32146 ft 364 kts 266°
2026-05-07 18:12 35.35481 -97.86648 32141 ft 363 kts 266°
2026-05-07 18:12 35.35384 -97.92829 32145 ft 363 kts 266°
2026-05-07 18:13 35.35281 -97.99011 32143 ft 363 kts 266°
2026-05-07 18:13 35.35174 -98.05194 32141 ft 365 kts 266°
2026-05-07 18:14 35.35069 -98.11424 32145 ft 366 kts 266°
2026-05-07 18:14 35.34961 -98.17658 32148 ft 366 kts 266°
2026-05-07 18:15 35.34846 -98.23888 32150 ft 366 kts 266°
2026-05-07 18:15 35.34726 -98.30125 32151 ft 366 kts 266°
2026-05-07 18:16 35.34606 -98.36358 32145 ft 366 kts 266°
2026-05-07 18:16 35.34506 -98.41546 32141 ft 367 kts 266°
2026-05-07 18:17 35.34382 -98.47782 32150 ft 366 kts 266°
2026-05-07 18:17 35.34255 -98.54015 32151 ft 366 kts 266°
2026-05-07 18:18 35.34115 -98.60252 32150 ft 367 kts 266°
2026-05-07 18:18 35.33982 -98.66507 32151 ft 368 kts 266°
2026-05-07 18:19 35.33841 -98.72765 32143 ft 368 kts 265°
2026-05-07 18:19 35.33694 -98.79025 32141 ft 368 kts 265°
2026-05-07 18:20 35.33553 -98.85284 32141 ft 368 kts 265°
2026-05-07 18:20 35.33405 -98.91556 32146 ft 368 kts 265°
2026-05-07 18:21 35.33250 -98.97826 32146 ft 369 kts 265°
2026-05-07 18:21 35.33091 -99.04112 32147 ft 369 kts 265°
2026-05-07 18:22 35.32924 -99.10395 32139 ft 369 kts 265°
2026-05-07 18:22 35.32754 -99.16689 32145 ft 370 kts 265°
2026-05-07 18:23 35.32579 -99.22991 32174 ft 371 kts 265°
2026-05-07 18:23 35.32497 -99.26113 32381 ft 371 kts 265°
2026-05-07 18:23 35.32411 -99.29308 32673 ft 370 kts 265°
2026-05-07 18:23 35.32325 -99.32407 32969 ft 368 kts 265°
2026-05-07 18:24 35.32244 -99.35535 33273 ft 366 kts 265°
2026-05-07 18:24 35.32159 -99.38645 33573 ft 364 kts 265°
2026-05-07 18:24 35.32070 -99.41734 33852 ft 362 kts 265°
2026-05-07 18:24 35.31984 -99.44803 34091 ft 359 kts 265°
2026-05-07 18:25 35.31896 -99.47849 34140 ft 357 kts 264°
2026-05-07 18:25 35.31723 -99.53906 34128 ft 355 kts 264°
2026-05-07 18:26 35.31546 -99.59958 34121 ft 355 kts 264°
2026-05-07 18:26 35.31365 -99.66005 34121 ft 356 kts 264°
2026-05-07 18:27 35.31177 -99.72063 34121 ft 356 kts 264°
2026-05-07 18:27 35.30990 -99.78126 34120 ft 356 kts 264°
2026-05-07 18:28 35.30801 -99.84189 34120 ft 357 kts 264°
2026-05-07 18:28 35.30615 -99.90209 34120 ft 356 kts 264°
2026-05-07 18:29 35.30415 -99.96260 34120 ft 356 kts 264°
2026-05-07 18:29 35.30212 -100.02313 34125 ft 356 kts 264°
2026-05-07 18:30 35.30007 -100.08412 34130 ft 360 kts 264°
2026-05-07 18:30 35.29797 -100.14534 34130 ft 360 kts 264°
2026-05-07 18:31 35.29584 -100.20662 34131 ft 360 kts 264°
2026-05-07 18:31 35.29370 -100.26794 34131 ft 360 kts 264°
2026-05-07 18:32 35.29153 -100.32926 34130 ft 361 kts 264°
2026-05-07 18:32 35.28932 -100.39075 34130 ft 362 kts 264°
2026-05-07 18:33 35.28709 -100.45220 34143 ft 361 kts 264°
2026-05-07 18:33 35.28480 -100.51365 34151 ft 362 kts 264°
2026-05-07 18:34 35.28247 -100.57519 34152 ft 362 kts 264°
2026-05-07 18:34 35.28010 -100.63682 34150 ft 363 kts 264°
2026-05-07 18:35 35.27773 -100.69855 34150 ft 363 kts 264°
2026-05-07 18:35 35.27534 -100.76030 34156 ft 364 kts 264°
2026-05-07 18:36 35.27288 -100.82221 34159 ft 365 kts 264°
2026-05-07 18:36 35.27043 -100.88380 34160 ft 365 kts 264°
2026-05-07 18:37 35.26790 -100.94597 34160 ft 366 kts 264°
2026-05-07 18:37 35.26533 -101.00824 34160 ft 367 kts 264°
2026-05-07 18:38 35.26280 -101.07066 34169 ft 367 kts 264°
2026-05-07 18:38 35.26014 -101.13312 34171 ft 368 kts 263°
2026-05-07 18:39 35.25746 -101.19570 34170 ft 369 kts 264°
2026-05-07 18:39 35.25477 -101.25840 34170 ft 370 kts 263°
2026-05-07 18:40 35.25205 -101.32126 34177 ft 370 kts 264°
2026-05-07 18:40 35.24929 -101.38418 34180 ft 371 kts 264°
2026-05-07 18:41 35.24650 -101.44716 34180 ft 371 kts 263°
2026-05-07 18:41 35.24352 -101.51022 34187 ft 372 kts 263°
2026-05-07 18:42 35.24063 -101.57336 34190 ft 372 kts 263°
2026-05-07 18:42 35.23772 -101.63651 34190 ft 372 kts 263°
2026-05-07 18:43 35.23487 -101.69975 34190 ft 373 kts 264°
2026-05-07 18:43 35.23325 -101.76316 34190 ft 373 kts 265°
2026-05-07 18:44 35.23176 -101.82670 34190 ft 374 kts 265°
2026-05-07 18:44 35.23025 -101.89027 34191 ft 374 kts 265°
2026-05-07 18:45 35.22870 -101.95389 34190 ft 374 kts 265°
2026-05-07 18:45 35.22712 -102.01752 34190 ft 375 kts 265°
2026-05-07 18:46 35.22542 -102.08154 34191 ft 380 kts 265°
2026-05-07 18:46 35.22370 -102.14577 34191 ft 381 kts 265°
2026-05-07 18:47 35.22193 -102.21053 34190 ft 381 kts 265°
2026-05-07 18:47 35.22016 -102.27527 34189 ft 381 kts 265°
2026-05-07 18:48 35.21821 -102.34005 34190 ft 382 kts 265°
2026-05-07 18:48 35.21641 -102.40493 34190 ft 382 kts 264°
2026-05-07 18:49 35.21449 -102.46985 34190 ft 382 kts 265°
2026-05-07 18:49 35.21267 -102.53483 34191 ft 383 kts 264°
2026-05-07 18:50 35.21063 -102.59991 34190 ft 383 kts 264°
2026-05-07 18:50 35.20865 -102.66502 34190 ft 384 kts 264°
2026-05-07 18:51 35.20659 -102.73024 34191 ft 384 kts 264°
2026-05-07 18:51 35.20453 -102.79509 34186 ft 385 kts 264°
2026-05-07 18:52 35.20238 -102.86051 34181 ft 386 kts 264°
2026-05-07 18:52 35.20024 -102.92611 34181 ft 386 kts 264°
2026-05-07 18:53 35.19805 -102.99175 34180 ft 387 kts 264°
2026-05-07 18:53 35.19578 -103.05757 34178 ft 388 kts 264°
2026-05-07 18:54 35.19348 -103.12348 34177 ft 388 kts 264°
2026-05-07 18:54 35.19111 -103.18948 34180 ft 389 kts 264°
2026-05-07 18:55 35.18878 -103.25568 34180 ft 390 kts 264°
2026-05-07 18:55 35.18632 -103.32207 34177 ft 392 kts 264°
2026-05-07 18:56 35.18394 -103.38861 34171 ft 392 kts 264°
2026-05-07 18:56 35.18146 -103.45528 34170 ft 393 kts 264°
2026-05-07 18:57 35.17888 -103.52206 34170 ft 394 kts 264°
2026-05-07 18:57 35.17626 -103.58898 34170 ft 394 kts 264°
2026-05-07 18:58 35.17371 -103.65596 34171 ft 395 kts 264°
2026-05-07 18:58 35.17101 -103.72305 34170 ft 396 kts 264°
2026-05-07 18:59 35.16833 -103.78983 34171 ft 396 kts 264°
2026-05-07 18:59 35.16563 -103.85706 34170 ft 396 kts 264°
2026-05-07 19:00 35.16281 -103.92436 34170 ft 397 kts 264°
2026-05-07 19:00 35.15991 -103.99170 34170 ft 397 kts 264°
2026-05-07 19:01 35.15708 -104.05913 34168 ft 400 kts 264°
2026-05-07 19:01 35.15416 -104.12726 34172 ft 402 kts 264°
2026-05-07 19:02 35.15122 -104.19554 34171 ft 403 kts 264°
2026-05-07 19:02 35.14823 -104.26384 34170 ft 403 kts 264°
2026-05-07 19:03 35.14517 -104.33213 34170 ft 403 kts 264°
2026-05-07 19:03 35.14210 -104.40045 34170 ft 403 kts 264°
2026-05-07 19:04 35.13895 -104.46876 34170 ft 403 kts 264°
2026-05-07 19:04 35.13573 -104.53709 34171 ft 403 kts 264°
2026-05-07 19:05 35.13317 -104.59383 34169 ft 403 kts 264°
2026-05-07 19:05 35.12989 -104.66212 34171 ft 403 kts 264°
2026-05-07 19:06 35.12662 -104.73047 34170 ft 403 kts 264°
2026-05-07 19:06 35.12163 -104.83302 34175 ft 403 kts 264°
2026-05-07 19:07 35.11819 -104.90140 34179 ft 404 kts 264°
2026-05-07 19:07 35.11481 -104.96991 34185 ft 404 kts 264°
2026-05-07 19:08 35.11143 -105.03838 34189 ft 405 kts 264°
2026-05-07 19:08 35.10916 -105.10709 34200 ft 405 kts 265°
2026-05-07 19:09 35.10705 -105.17593 34223 ft 406 kts 265°
2026-05-07 19:09 35.10483 -105.24487 34219 ft 407 kts 265°
2026-05-07 19:10 35.10255 -105.31389 34228 ft 407 kts 265°
2026-05-07 19:10 35.10023 -105.38302 34237 ft 407 kts 265°
2026-05-07 19:11 35.09789 -105.45215 34230 ft 408 kts 265°
2026-05-07 19:11 35.09555 -105.52141 34233 ft 409 kts 265°
2026-05-07 19:12 35.09310 -105.59073 34231 ft 408 kts 265°
2026-05-07 19:12 35.09055 -105.65997 34240 ft 409 kts 265°
2026-05-07 19:13 35.08800 -105.72937 34241 ft 409 kts 265°
2026-05-07 19:13 35.08543 -105.79868 34236 ft 409 kts 265°
2026-05-07 19:14 35.08273 -105.86802 34229 ft 409 kts 265°
2026-05-07 19:14 35.08014 -105.93703 34222 ft 410 kts 265°
2026-05-07 19:15 35.07747 -106.00647 34211 ft 409 kts 265°
2026-05-07 19:15 35.07471 -106.07624 34208 ft 414 kts 265°
2026-05-07 19:16 35.07211 -106.14660 34214 ft 415 kts 265°
2026-05-07 19:16 35.06937 -106.21688 34208 ft 414 kts 265°
2026-05-07 19:17 35.06658 -106.28725 34213 ft 415 kts 265°
2026-05-07 19:17 35.06367 -106.35761 34223 ft 415 kts 265°
2026-05-07 19:18 35.06072 -106.42780 34212 ft 414 kts 265°
2026-05-07 19:18 35.05771 -106.49808 34201 ft 415 kts 265°
2026-05-07 19:19 35.05466 -106.56839 34202 ft 415 kts 265°
2026-05-07 19:19 35.05160 -106.63877 34208 ft 416 kts 265°
2026-05-07 19:20 35.04851 -106.70873 34203 ft 416 kts 265°
2026-05-07 19:20 35.04533 -106.77926 34208 ft 416 kts 265°
2026-05-07 19:21 35.04282 -106.84985 34222 ft 417 kts 266°
2026-05-07 19:21 35.04110 -106.92060 34228 ft 417 kts 266°
2026-05-07 19:22 35.03932 -106.99146 34216 ft 418 kts 266°
2026-05-07 19:22 35.03752 -107.06243 34221 ft 419 kts 266°
2026-05-07 19:23 35.03572 -107.13341 34218 ft 419 kts 266°
2026-05-07 19:23 35.03378 -107.20444 34218 ft 419 kts 266°
2026-05-07 19:24 35.03181 -107.27551 34224 ft 419 kts 266°
2026-05-07 19:24 35.02983 -107.34673 34224 ft 420 kts 266°
2026-05-07 19:25 35.02781 -107.41803 34230 ft 421 kts 266°
2026-05-07 19:25 35.02573 -107.48944 34234 ft 421 kts 266°
2026-05-07 19:26 35.02362 -107.56094 34236 ft 422 kts 266°
2026-05-07 19:26 35.02146 -107.63247 34237 ft 423 kts 266°
2026-05-07 19:27 35.01926 -107.70417 34239 ft 423 kts 266°
2026-05-07 19:27 35.01698 -107.77587 34244 ft 423 kts 266°
2026-05-07 19:28 35.01471 -107.84758 34250 ft 423 kts 266°
2026-05-07 19:28 35.01235 -107.91936 34249 ft 424 kts 266°
2026-05-07 19:29 35.00996 -107.99115 34250 ft 424 kts 266°
2026-05-07 19:29 35.00756 -108.06308 34247 ft 428 kts 267°
2026-05-07 19:30 35.00508 -108.13604 34248 ft 432 kts 267°
2026-05-07 19:30 35.00250 -108.20922 34246 ft 432 kts 267°
2026-05-07 19:31 34.99996 -108.28203 34242 ft 433 kts 267°
2026-05-07 19:31 34.99728 -108.35537 34241 ft 433 kts 267°
2026-05-07 19:32 34.99462 -108.42875 34238 ft 433 kts 266°
2026-05-07 19:32 34.99185 -108.50213 34236 ft 433 kts 266°
2026-05-07 19:33 34.98905 -108.57569 34226 ft 434 kts 267°
2026-05-07 19:33 34.98625 -108.64929 34230 ft 435 kts 267°
2026-05-07 19:34 34.98335 -108.72304 34240 ft 436 kts 267°
2026-05-07 19:34 34.98041 -108.79692 34229 ft 437 kts 266°
2026-05-07 19:35 34.97741 -108.87095 34234 ft 437 kts 267°
2026-05-07 19:35 34.97436 -108.94509 34228 ft 438 kts 267°
2026-05-07 19:36 34.97128 -109.01940 34232 ft 439 kts 267°
2026-05-07 19:36 34.96815 -109.09390 34231 ft 441 kts 267°
2026-05-07 19:37 34.96462 -109.16864 34233 ft 442 kts 265°
2026-05-07 19:37 34.95972 -109.24349 34234 ft 443 kts 265°
2026-05-07 19:38 34.95473 -109.31846 34220 ft 445 kts 265°
2026-05-07 19:38 34.94969 -109.39371 34230 ft 446 kts 265°
2026-05-07 19:39 34.94462 -109.46907 34237 ft 446 kts 265°
2026-05-07 19:39 34.94034 -109.53173 34221 ft 446 kts 265°
2026-05-07 19:40 34.93428 -109.61943 34220 ft 447 kts 265°
2026-05-07 19:40 34.92901 -109.69524 34219 ft 450 kts 265°
2026-05-07 19:41 34.92368 -109.77124 34224 ft 451 kts 265°
2026-05-07 19:41 34.91830 -109.84734 34223 ft 451 kts 265°
2026-05-07 19:42 34.91285 -109.92356 34223 ft 452 kts 265°
2026-05-07 19:42 34.90738 -109.99982 34221 ft 452 kts 265°
2026-05-07 19:43 34.90187 -110.07589 34228 ft 451 kts 266°
2026-05-07 19:43 34.89627 -110.15254 34232 ft 456 kts 266°
2026-05-07 19:44 34.89055 -110.22952 34225 ft 457 kts 266°
2026-05-07 19:44 34.88485 -110.30657 34226 ft 457 kts 265°
2026-05-07 19:45 34.87906 -110.38364 34219 ft 457 kts 265°
2026-05-07 19:45 34.87313 -110.46073 34228 ft 457 kts 265°
2026-05-07 19:46 34.86724 -110.53782 34212 ft 457 kts 266°
2026-05-07 19:46 34.86130 -110.61497 34206 ft 457 kts 266°
2026-05-07 19:47 34.85534 -110.69207 34222 ft 458 kts 266°
2026-05-07 19:47 34.84927 -110.76930 34211 ft 458 kts 266°
2026-05-07 19:48 34.84314 -110.84656 34216 ft 459 kts 266°
2026-05-07 19:48 34.83702 -110.92340 34218 ft 459 kts 266°
2026-05-07 19:49 34.83083 -111.00088 34220 ft 460 kts 266°
2026-05-07 19:49 34.82456 -111.07838 34220 ft 461 kts 266°
2026-05-07 19:50 34.81821 -111.15602 34226 ft 462 kts 266°
2026-05-07 19:50 34.81178 -111.23380 34221 ft 462 kts 266°
2026-05-07 19:51 34.80531 -111.31159 34228 ft 462 kts 266°
2026-05-07 19:51 34.79877 -111.38947 34181 ft 463 kts 266°
2026-05-07 19:52 34.79224 -111.46750 34150 ft 464 kts 266°
2026-05-07 19:52 34.78674 -111.53255 34151 ft 465 kts 266°
2026-05-07 19:53 34.77892 -111.62343 34140 ft 465 kts 266°
2026-05-07 19:53 34.77217 -111.70171 34143 ft 466 kts 266°
2026-05-07 19:54 34.76647 -111.76741 34150 ft 466 kts 266°
2026-05-07 19:54 34.75963 -111.84583 34144 ft 466 kts 266°
2026-05-07 19:55 34.75271 -111.92425 34123 ft 467 kts 266°
2026-05-07 19:55 34.74582 -112.00219 34095 ft 467 kts 266°
2026-05-07 19:56 34.73876 -112.08090 34087 ft 470 kts 266°
2026-05-07 19:56 34.73165 -112.15989 34091 ft 470 kts 266°
2026-05-07 19:57 34.72448 -112.23881 34108 ft 470 kts 266°
2026-05-07 19:57 34.71732 -112.31769 34146 ft 470 kts 266°
2026-05-07 19:58 34.71006 -112.39658 34171 ft 471 kts 266°
2026-05-07 19:58 34.70268 -112.47566 34186 ft 470 kts 265°
2026-05-07 19:59 34.69397 -112.55441 34180 ft 470 kts 264°
2026-05-07 19:59 34.68505 -112.63313 34178 ft 470 kts 264°
2026-05-07 20:00 34.67616 -112.71189 34172 ft 471 kts 265°
2026-05-07 20:00 34.66732 -112.79079 34162 ft 471 kts 265°
2026-05-07 20:01 34.65827 -112.86972 34153 ft 472 kts 264°
2026-05-07 20:01 34.64915 -112.94885 34144 ft 476 kts 265°
2026-05-07 20:02 34.63995 -113.02792 34132 ft 476 kts 265°
2026-05-07 20:02 34.63060 -113.10764 34122 ft 478 kts 265°
2026-05-07 20:03 34.62126 -113.18747 34104 ft 478 kts 265°
2026-05-07 20:03 34.61181 -113.26738 34090 ft 478 kts 264°
2026-05-07 20:04 34.60228 -113.34727 34085 ft 478 kts 265°
2026-05-07 20:04 34.59278 -113.42704 34073 ft 477 kts 265°
2026-05-07 20:05 34.58316 -113.50683 34062 ft 478 kts 264°
2026-05-07 20:05 34.57344 -113.58679 34053 ft 479 kts 265°
2026-05-07 20:06 34.56377 -113.66675 34029 ft 480 kts 265°
2026-05-07 20:06 34.55398 -113.74686 33998 ft 480 kts 264°
2026-05-07 20:07 34.54413 -113.82688 33982 ft 479 kts 264°
2026-05-07 20:07 34.53426 -113.90682 33973 ft 480 kts 264°
2026-05-07 20:08 34.52431 -113.98678 33972 ft 480 kts 264°
2026-05-07 20:08 34.51336 -114.06670 33973 ft 482 kts 260°
2026-05-07 20:09 34.49687 -114.14557 33968 ft 483 kts 258°
2026-05-07 20:10 34.47177 -114.26370 33959 ft 482 kts 258°
2026-05-07 20:10 34.45505 -114.34237 33951 ft 482 kts 258°
2026-05-07 20:11 34.43808 -114.42105 33950 ft 484 kts 258°
2026-05-07 20:11 34.42113 -114.49997 33947 ft 484 kts 258°
2026-05-07 20:12 34.40437 -114.57822 33943 ft 482 kts 258°
2026-05-07 20:12 34.38756 -114.65673 33955 ft 481 kts 258°
2026-05-07 20:13 34.37054 -114.73491 33950 ft 480 kts 258°
2026-05-07 20:13 34.35356 -114.81309 33954 ft 480 kts 258°
2026-05-07 20:14 34.33653 -114.89116 33964 ft 480 kts 258°
2026-05-07 20:14 34.31947 -114.96910 33970 ft 479 kts 258°
2026-05-07 20:15 34.30255 -115.04701 33979 ft 479 kts 258°
2026-05-07 20:15 34.28544 -115.12486 33979 ft 479 kts 258°
2026-05-07 20:16 34.26824 -115.20267 33972 ft 479 kts 258°
2026-05-07 20:16 34.25139 -115.28001 33979 ft 479 kts 258°
2026-05-07 20:17 34.23474 -115.35854 33980 ft 479 kts 258°
2026-05-07 20:17 34.21814 -115.43640 33989 ft 479 kts 258°
2026-05-07 20:18 34.20157 -115.51377 33994 ft 479 kts 258°
2026-05-07 20:18 34.18480 -115.59156 34003 ft 478 kts 258°
2026-05-07 20:19 34.16788 -115.66982 34011 ft 479 kts 259°
2026-05-07 20:19 34.15772 -115.74817 34012 ft 475 kts 267°
2026-05-07 20:20 34.15063 -115.82342 34020 ft 475 kts 267°
2026-05-07 20:20 34.14294 -115.90255 34039 ft 474 kts 266°
2026-05-07 20:21 34.13524 -115.98168 34049 ft 475 kts 266°
2026-05-07 20:21 34.12745 -116.06097 34057 ft 476 kts 267°
2026-05-07 20:22 34.11972 -116.14037 34068 ft 476 kts 266°
2026-05-07 20:22 34.11184 -116.21963 33908 ft 471 kts 266°
2026-05-07 20:22 34.10797 -116.25897 32996 ft 475 kts 266°
2026-05-07 20:23 34.10401 -116.29870 32110 ft 479 kts 266°
2026-05-07 20:23 34.09981 -116.33865 31356 ft 480 kts 266°
2026-05-07 20:23 34.09550 -116.37847 30685 ft 478 kts 266°
2026-05-07 20:23 34.09123 -116.41805 30041 ft 475 kts 266°
2026-05-07 20:24 34.08696 -116.45743 29406 ft 472 kts 266°
2026-05-07 20:24 34.08275 -116.49654 28778 ft 468 kts 266°
2026-05-07 20:24 34.07860 -116.53529 28148 ft 464 kts 266°
2026-05-07 20:24 34.07440 -116.57370 27552 ft 460 kts 265°
2026-05-07 20:25 34.07062 -116.61182 27004 ft 453 kts 267°
2026-05-07 20:25 34.06714 -116.64908 26660 ft 440 kts 267°
2026-05-07 20:25 34.06380 -116.68547 26049 ft 435 kts 267°
2026-05-07 20:25 34.06051 -116.72160 25392 ft 432 kts 267°
2026-05-07 20:26 34.05721 -116.75738 24773 ft 427 kts 267°
2026-05-07 20:26 34.05380 -116.79271 24173 ft 421 kts 266°
2026-05-07 20:26 34.05051 -116.82758 23618 ft 415 kts 267°
2026-05-07 20:26 34.04728 -116.86202 23067 ft 411 kts 267°
2026-05-07 20:27 34.04387 -116.89558 22541 ft 408 kts 265°
2026-05-07 20:27 34.03962 -116.92925 22008 ft 405 kts 264°
2026-05-07 20:27 34.03519 -116.96266 21473 ft 402 kts 264°
2026-05-07 20:27 34.03078 -116.99579 20952 ft 399 kts 264°
2026-05-07 20:28 34.02647 -117.02868 20420 ft 395 kts 264°
2026-05-07 20:28 34.02238 -117.06128 19898 ft 393 kts 265°
2026-05-07 20:28 34.01855 -117.09382 19376 ft 391 kts 265°
2026-05-07 20:28 34.01478 -117.12615 18882 ft 389 kts 265°
2026-05-07 20:29 34.01101 -117.15838 18397 ft 388 kts 264°
2026-05-07 20:29 34.00720 -117.19055 17914 ft 388 kts 264°
2026-05-07 20:29 34.00339 -117.22259 17400 ft 384 kts 264°
2026-05-07 20:29 33.99963 -117.25428 16893 ft 380 kts 264°
2026-05-07 20:30 33.99582 -117.28555 16396 ft 375 kts 264°
2026-05-07 20:30 33.99208 -117.31647 15896 ft 370 kts 264°
2026-05-07 20:30 33.98839 -117.34717 15428 ft 370 kts 264°
2026-05-07 20:30 33.98478 -117.37782 14985 ft 368 kts 264°
2026-05-07 20:31 33.98127 -117.40810 14527 ft 362 kts 264°
2026-05-07 20:31 33.97782 -117.43795 14052 ft 359 kts 264°
2026-05-07 20:31 33.97436 -117.46778 13608 ft 357 kts 264°
2026-05-07 20:31 33.97391 -117.49698 13323 ft 343 kts 281°
2026-05-07 20:32 33.97938 -117.52438 12973 ft 333 kts 288°
2026-05-07 20:32 33.98598 -117.55100 12511 ft 329 kts 288°
2026-05-07 20:32 33.99252 -117.57738 12038 ft 330 kts 288°
2026-05-07 20:32 33.99895 -117.60399 11586 ft 330 kts 287°
2026-05-07 20:33 34.00523 -117.63043 11147 ft 325 kts 287°
2026-05-07 20:33 34.01135 -117.65628 10864 ft 315 kts 287°
2026-05-07 20:33 34.01726 -117.68118 10660 ft 303 kts 286°
2026-05-07 20:33 34.02077 -117.70550 10328 ft 297 kts 270°
2026-05-07 20:34 34.01916 -117.73012 9928 ft 293 kts 263°
2026-05-07 20:34 34.01667 -117.75440 9491 ft 291 kts 263°
2026-05-07 20:34 34.01423 -117.77865 9064 ft 292 kts 263°
2026-05-07 20:34 34.01176 -117.80301 8659 ft 293 kts 263°
2026-05-07 20:35 34.00929 -117.82735 8260 ft 291 kts 263°
2026-05-07 20:35 34.00690 -117.85145 7862 ft 288 kts 263°
2026-05-07 20:35 34.00453 -117.87527 7456 ft 285 kts 263°
2026-05-07 20:35 34.00222 -117.89885 7088 ft 281 kts 263°
2026-05-07 20:36 33.99988 -117.92175 6965 ft 268 kts 263°
2026-05-07 20:36 33.99770 -117.94345 6866 ft 255 kts 263°
2026-05-07 20:36 33.99561 -117.96430 6615 ft 248 kts 263°
2026-05-07 20:36 33.99365 -117.98391 6289 ft 245 kts 263°
2026-05-07 20:37 33.99165 -118.00410 5928 ft 244 kts 263°
2026-05-07 20:37 33.98961 -118.02436 5563 ft 243 kts 263°
2026-05-07 20:37 33.98769 -118.04450 5200 ft 242 kts 263°
2026-05-07 20:37 33.98590 -118.06458 4862 ft 240 kts 265°
2026-05-07 20:38 33.98456 -118.08450 4519 ft 238 kts 263°
2026-05-07 20:38 33.98262 -118.10422 4173 ft 236 kts 263°
2026-05-07 20:38 33.98064 -118.12377 3989 ft 233 kts 262°
2026-05-07 20:38 33.97870 -118.14267 3958 ft 225 kts 262°
2026-05-07 20:39 33.97679 -118.16131 3890 ft 224 kts 262°
2026-05-07 20:39 33.97491 -118.17968 3673 ft 217 kts 262°
2026-05-07 20:39 33.97309 -118.19740 3405 ft 210 kts 262°
2026-05-07 20:39 33.97134 -118.21449 3130 ft 201 kts 262°
2026-05-07 20:40 33.96965 -118.23091 2926 ft 199 kts 262°
2026-05-07 20:40 33.96801 -118.24696 2683 ft 187 kts 262°
2026-05-07 20:40 33.96646 -118.26206 2448 ft 176 kts 262°
2026-05-07 20:40 33.96499 -118.27631 2196 ft 167 kts 263°
2026-05-07 20:41 33.96360 -118.28990 1976 ft 161 kts 263°
2026-05-07 20:41 33.96225 -118.30307 1750 ft 152 kts 263°
2026-05-07 20:41 33.96103 -118.31491 1522 ft 136 kts 263°
2026-05-07 20:41 33.95988 -118.32604 1347 ft 133 kts 263°
2026-05-07 20:42 33.95875 -118.33704 1174 ft 132 kts 263°
2026-05-07 20:42 33.95763 -118.34805 1002 ft 132 kts 263°
2026-05-07 20:42 33.95650 -118.35895 828 ft 130 kts 262°
2026-05-07 20:42 33.95539 -118.36982 659 ft 131 kts 262°
2026-05-07 20:43 33.95430 -118.38073 470 ft 131 kts 262°
2026-05-07 20:43 33.95319 -118.39166 296 ft 131 kts 262°
2026-05-07 20:43 33.95238 -118.39903 177 ft 132 kts 263°
2026-05-07 20:43 33.95127 -118.40984 98 ft 122 kts 263°
2026-05-07 20:44 33.95047 -118.41772 102 ft 43 kts 261°
2026-05-07 20:44 33.95017 -118.42006 101 ft 37 kts 257°
2026-05-07 20:44 33.94914 -118.42226 101 ft 24 kts 223°
2026-05-07 20:44 33.94791 -118.42283 101 ft 20 kts 177°
2026-05-07 20:45 33.94687 -118.42241 100 ft 14 kts 108°
2026-05-07 20:45 33.94695 -118.42116 99 ft 16 kts 83°
2026-05-07 20:45 33.94709 -118.41974 99 ft 18 kts 83°
2026-05-07 20:45 33.94725 -118.41818 100 ft 20 kts 83°
2026-05-07 20:46 33.94741 -118.41649 99 ft 21 kts 83°
2026-05-07 20:46 33.94759 -118.41474 102 ft 16 kts 83°
2026-05-07 20:46 33.94788 -118.41333 100 ft 18 kts 83°
2026-05-07 20:46 33.94804 -118.41175 103 ft 20 kts 82°
2026-05-07 20:47 33.94821 -118.41002 100 ft 22 kts 83°
2026-05-07 20:47 33.94839 -118.40832 100 ft 19 kts 83°
2026-05-07 20:47 33.94852 -118.40704 101 ft 12 kts 83°
2026-05-07 20:47 33.94860 -118.40623 100 ft 7 kts 88°
2026-05-07 20:48 33.94839 -118.40597 99 ft 5 kts 173°
2026-05-07 20:48 33.94805 -118.40592 101 ft 5 kts 171°
2026-05-07 20:48 33.94772 -118.40585 101 ft 5 kts 173°
2026-05-07 20:48 33.94742 -118.40608 98 ft 5 kts 226°
2026-05-07 20:49 33.94719 -118.40642 99 ft 4 kts 232°
2026-05-07 20:49 33.94708 -118.40657 98 ft 1 kts 231°
2026-05-07 20:49 33.94703 -118.40666 97 ft 1 kts 232°
2026-05-07 20:49 33.94699 -118.40672 97 ft 1 kts 232°